Check out our new BloomSky Weather System.

Active alerts


No alerts


Thunder radar  blitzortung!


Rain radar more information rain snow radar


Visit our other weather sites:

Template documentation
and downloads

And another site



Weather Underground History page Text

Daily Summary for February 8, 2017 Units:  English    Metric   Both
« Previous Day
Next Day »
Daily Weekly Monthly Yearly Custom
  High: Low: Average:
Temperature: 88.3 °F 60.4 °F 74.2 °F
Dew Point: 71.8 °F 42.3 °F 61.3 °F
Humidity: 97 % 27 % 69 %
Wind Speed: 13.0 mph 0.0 mph 4 mph
Wind Gust: 19.0 mph - -
Wind:- - WSW
Pressure: 30.07 in 29.72 in -
Precipitation: 0.00 in    
Historical Graphs
 
 
Tabular Data for February 8, 2017
Time Temperature Dew Point Pressure Wind Wind Speed Wind Gust Humidity Rainfall Rate (Hourly)
00:02 68.2 °F 66.4 °F 29.76 in South 1.0 mph 4.0 mph 94 % 0.00 in
00:07 68.2 °F 66.4 °F 29.76 in SSW 2.0 mph 4.0 mph 94 % 0.00 in
00:12 68.2 °F 66.4 °F 29.75 in South 3.0 mph 5.0 mph 94 % 0.00 in
00:17 68.0 °F 66.6 °F 29.75 in SSW 3.0 mph 5.0 mph 95 % 0.00 in
00:22 67.8 °F 66.4 °F 29.75 in SSW 1.0 mph 5.0 mph 95 % 0.00 in
00:27 67.8 °F 66.4 °F 29.75 in SW 6.0 mph 6.0 mph 95 % 0.00 in
00:32 67.8 °F 66.4 °F 29.75 in South 5.0 mph 6.0 mph 95 % 0.00 in
00:37 67.6 °F 66.2 °F 29.74 in SSE 1.0 mph 6.0 mph 95 % 0.00 in
00:42 67.5 °F 66.0 °F 29.74 in South 3.0 mph 6.0 mph 95 % 0.00 in
00:47 67.6 °F 66.4 °F 29.74 in SSE 3.0 mph 5.0 mph 96 % 0.00 in
00:52 67.6 °F 66.4 °F 29.75 in SSE 1.0 mph 7.0 mph 96 % 0.00 in
00:57 67.5 °F 66.2 °F 29.75 in SSW 1.0 mph 7.0 mph 96 % 0.00 in
01:02 67.6 °F 66.4 °F 29.75 in SSW 4.0 mph 7.0 mph 96 % 0.00 in
01:07 67.6 °F 66.4 °F 29.75 in SSW 3.0 mph 5.0 mph 96 % 0.00 in
01:12 67.6 °F 66.4 °F 29.75 in SSW 4.0 mph 4.0 mph 96 % 0.00 in
01:17 67.6 °F 66.4 °F 29.75 in SW 4.0 mph 7.0 mph 96 % 0.00 in
01:22 67.6 °F 66.4 °F 29.75 in WSW 2.0 mph 7.0 mph 96 % 0.00 in
01:27 67.6 °F 66.4 °F 29.75 in SSW 2.0 mph 7.0 mph 96 % 0.00 in
01:32 67.6 °F 66.7 °F 29.75 in SSW 3.0 mph 7.0 mph 97 % 0.00 in
01:37 67.6 °F 66.7 °F 29.75 in SW 3.0 mph 7.0 mph 97 % 0.00 in
01:42 67.6 °F 66.7 °F 29.76 in SW 4.0 mph 7.0 mph 97 % 0.00 in
01:47 67.6 °F 66.7 °F 29.75 in SSW 3.0 mph 7.0 mph 97 % 0.00 in
01:52 67.6 °F 66.7 °F 29.75 in SW 5.0 mph 7.0 mph 97 % 0.00 in
01:57 67.6 °F 66.7 °F 29.75 in SW 1.0 mph 7.0 mph 97 % 0.00 in
02:02 67.6 °F 66.7 °F 29.75 in SSE 2.0 mph 7.0 mph 97 % 0.00 in
02:07 67.6 °F 66.7 °F 29.75 in SSE 3.0 mph 6.0 mph 97 % 0.00 in
02:12 67.8 °F 66.9 °F 29.75 in South 2.0 mph 6.0 mph 97 % 0.00 in
02:17 67.8 °F 66.9 °F 29.75 in SW 2.0 mph 6.0 mph 97 % 0.00 in
02:22 67.8 °F 66.9 °F 29.75 in SSE 1.0 mph 6.0 mph 97 % 0.00 in
02:27 67.8 °F 66.9 °F 29.75 in South 2.0 mph 5.0 mph 97 % 0.00 in
02:32 67.8 °F 66.9 °F 29.74 in SSE 2.0 mph 6.0 mph 97 % 0.00 in
02:37 67.8 °F 66.9 °F 29.75 in SSE 1.0 mph 6.0 mph 97 % 0.00 in
02:42 67.8 °F 66.9 °F 29.74 in SSW 2.0 mph 6.0 mph 97 % 0.00 in
02:47 68.0 °F 67.1 °F 29.74 in SSW 6.0 mph 7.0 mph 97 % 0.00 in
02:52 68.0 °F 67.1 °F 29.74 in SW 4.0 mph 7.0 mph 97 % 0.00 in
02:57 68.0 °F 67.1 °F 29.74 in SSW 4.0 mph 7.0 mph 97 % 0.00 in
03:02 68.2 °F 67.3 °F 29.74 in SSW 3.0 mph 8.0 mph 97 % 0.00 in
03:07 68.0 °F 67.1 °F 29.74 in South 3.0 mph 8.0 mph 97 % 0.00 in
03:12 68.0 °F 67.1 °F 29.74 in SW 5.0 mph 10.0 mph 97 % 0.00 in
03:17 68.0 °F 67.1 °F 29.74 in South 5.0 mph 11.0 mph 97 % 0.00 in
03:22 68.0 °F 67.1 °F 29.74 in SSW 4.0 mph 11.0 mph 97 % 0.00 in
03:27 68.2 °F 67.3 °F 29.74 in SSE 4.0 mph 11.0 mph 97 % 0.00 in
03:32 68.2 °F 67.3 °F 29.74 in SSE 3.0 mph 9.0 mph 97 % 0.00 in
03:33 68.2 °F 67.3 °F 29.74 in SSE 2.0 mph 9.0 mph 97 % 0.00 in
03:38 68.2 °F 67.3 °F 29.74 in SE 2.0 mph 9.0 mph 97 % 0.00 in
03:43 68.2 °F 67.3 °F 29.73 in SSW 7.0 mph 9.0 mph 97 % 0.00 in
03:48 68.2 °F 67.3 °F 29.73 in SSE 2.0 mph 9.0 mph 97 % 0.00 in
03:53 68.4 °F 67.5 °F 29.73 in SE 3.0 mph 9.0 mph 97 % 0.00 in
03:58 68.4 °F 67.5 °F 29.73 in South 1.0 mph 9.0 mph 97 % 0.00 in
04:03 68.4 °F 67.5 °F 29.73 in SSE 2.0 mph 8.0 mph 97 % 0.00 in
04:08 68.4 °F 67.5 °F 29.73 in SSE 1.0 mph 7.0 mph 97 % 0.00 in
04:13 68.4 °F 67.5 °F 29.73 in SSW 4.0 mph 8.0 mph 97 % 0.00 in
04:18 68.5 °F 67.6 °F 29.72 in SSE 3.0 mph 8.0 mph 97 % 0.00 in
04:23 68.5 °F 67.6 °F 29.72 in SSW 6.0 mph 8.0 mph 97 % 0.00 in
04:28 68.5 °F 67.6 °F 29.72 in SSE 4.0 mph 9.0 mph 97 % 0.00 in
04:29 68.5 °F 67.6 °F 29.72 in South 4.0 mph 9.0 mph 97 % 0.00 in
04:34 68.5 °F 67.3 °F 29.72 in SSW 2.0 mph 9.0 mph 96 % 0.00 in
04:39 68.7 °F 67.5 °F 29.73 in South 4.0 mph 10.0 mph 96 % 0.00 in
04:44 68.7 °F 67.5 °F 29.72 in South 7.0 mph 10.0 mph 96 % 0.00 in
04:49 68.9 °F 67.6 °F 29.72 in SSE 3.0 mph 11.0 mph 96 % 0.00 in
04:54 68.9 °F 67.6 °F 29.72 in South 8.0 mph 11.0 mph 96 % 0.00 in
04:59 68.9 °F 67.6 °F 29.72 in South 5.0 mph 11.0 mph 96 % 0.00 in
05:04 69.1 °F 67.6 °F 29.72 in SSW 4.0 mph 11.0 mph 95 % 0.00 in
05:09 69.1 °F 67.6 °F 29.73 in South 6.0 mph 11.0 mph 95 % 0.00 in
05:15 69.1 °F 67.6 °F 29.73 in SSW 6.0 mph 11.0 mph 95 % 0.00 in
05:20 69.3 °F 67.8 °F 29.73 in SE 2.0 mph 14.0 mph 95 % 0.00 in
05:25 69.3 °F 67.8 °F 29.73 in SSW 5.0 mph 14.0 mph 95 % 0.00 in
05:30 69.3 °F 67.8 °F 29.73 in South 3.0 mph 12.0 mph 95 % 0.00 in
05:35 69.3 °F 67.8 °F 29.73 in South 6.0 mph 8.0 mph 95 % 0.00 in
05:40 69.3 °F 67.5 °F 29.74 in SSW 3.0 mph 11.0 mph 94 % 0.00 in
05:45 69.4 °F 67.6 °F 29.74 in SSE 3.0 mph 12.0 mph 94 % 0.00 in
05:50 69.4 °F 67.6 °F 29.74 in South 5.0 mph 12.0 mph 94 % 0.00 in
05:55 69.4 °F 67.6 °F 29.74 in SSW 7.0 mph 12.0 mph 94 % 0.00 in
06:00 69.4 °F 67.6 °F 29.75 in WSW 3.0 mph 11.0 mph 94 % 0.00 in
06:05 69.4 °F 67.6 °F 29.75 in SSW 3.0 mph 11.0 mph 94 % 0.00 in
06:10 69.4 °F 67.6 °F 29.75 in SSW 4.0 mph 11.0 mph 94 % 0.00 in
06:15 69.4 °F 67.6 °F 29.75 in SW 1.0 mph 9.0 mph 94 % 0.00 in
06:20 69.4 °F 67.6 °F 29.75 in SW 6.0 mph 8.0 mph 94 % 0.00 in
06:25 69.3 °F 67.5 °F 29.76 in SW 2.0 mph 8.0 mph 94 % 0.00 in
06:30 69.4 °F 67.3 °F 29.75 in SE 2.0 mph 8.0 mph 93 % 0.00 in
06:35 69.4 °F 67.3 °F 29.76 in South 3.0 mph 8.0 mph 93 % 0.00 in
06:40 69.4 °F 67.3 °F 29.76 in Calm   8.0 mph 93 % 0.00 in
06:45 69.3 °F 67.1 °F 29.76 in SSW 3.0 mph 6.0 mph 93 % 0.00 in
06:50 69.3 °F 67.1 °F 29.77 in SSW 1.0 mph 7.0 mph 93 % 0.00 in
06:55 69.3 °F 67.1 °F 29.77 in SW 2.0 mph 7.0 mph 93 % 0.00 in
07:01 69.3 °F 67.1 °F 29.77 in SW 1.0 mph 7.0 mph 93 % 0.00 in
07:06 69.3 °F 67.1 °F 29.77 in Calm   5.0 mph 93 % 0.00 in
07:11 69.4 °F 67.3 °F 29.77 in SW 1.0 mph 5.0 mph 93 % 0.00 in
07:16 69.4 °F 67.3 °F 29.78 in SW 1.0 mph 5.0 mph 93 % 0.00 in
07:21 69.4 °F 67.3 °F 29.78 in SSW 1.0 mph 4.0 mph 93 % 0.00 in
07:26 69.4 °F 67.3 °F 29.78 in SW 1.0 mph 4.0 mph 93 % 0.00 in
07:31 69.6 °F 67.5 °F 29.78 in Calm   4.0 mph 93 % 0.00 in
07:36 69.6 °F 67.5 °F 29.78 in SSW 1.0 mph 4.0 mph 93 % 0.00 in
07:41 69.6 °F 67.5 °F 29.78 in SW 1.0 mph 4.0 mph 93 % 0.00 in
07:46 69.8 °F 67.6 °F 29.78 in SW 4.0 mph 4.0 mph 93 % 0.00 in
07:51 70.0 °F 67.8 °F 29.78 in SSW 3.0 mph 13.0 mph 93 % 0.00 in
07:56 70.2 °F 68.0 °F 29.78 in SW 1.0 mph 13.0 mph 93 % 0.00 in
08:01 70.2 °F 67.6 °F 29.78 in SSW 4.0 mph 13.0 mph 92 % 0.00 in
08:06 70.3 °F 67.8 °F 29.78 in SW 2.0 mph 8.0 mph 92 % 0.00 in
08:11 70.3 °F 67.8 °F 29.78 in SSW 2.0 mph 8.0 mph 92 % 0.00 in
08:16 70.5 °F 68.0 °F 29.78 in SW 7.0 mph 8.0 mph 92 % 0.00 in
08:21 70.5 °F 67.8 °F 29.79 in West 3.0 mph 8.0 mph 91 % 0.00 in
08:26 70.9 °F 68.2 °F 29.79 in SSW 2.0 mph 8.0 mph 91 % 0.00 in
08:31 71.1 °F 68.4 °F 29.79 in SSW 7.0 mph 8.0 mph 91 % 0.00 in
08:36 71.1 °F 68.4 °F 29.79 in SSE 4.0 mph 10.0 mph 91 % 0.00 in
08:41 71.1 °F 68.0 °F 29.79 in WSW 3.0 mph 11.0 mph 90 % 0.00 in
08:46 71.1 °F 68.0 °F 29.79 in SSW 5.0 mph 11.0 mph 90 % 0.00 in
08:51 71.1 °F 68.0 °F 29.79 in SSW 4.0 mph 11.0 mph 90 % 0.00 in
08:56 71.2 °F 68.2 °F 29.79 in SW 3.0 mph 11.0 mph 90 % 0.00 in
09:02 71.4 °F 68.4 °F 29.80 in West 2.0 mph 8.0 mph 90 % 0.00 in
09:07 71.4 °F 68.0 °F 29.80 in SW 3.0 mph 8.0 mph 89 % 0.00 in
09:12 71.6 °F 68.5 °F 29.80 in WSW 3.0 mph 8.0 mph 90 % 0.00 in
09:17 71.6 °F 68.2 °F 29.81 in WNW 4.0 mph 10.0 mph 89 % 0.00 in
09:22 71.8 °F 68.4 °F 29.80 in SW 6.0 mph 10.0 mph 89 % 0.00 in
09:27 72.0 °F 68.2 °F 29.80 in SSW 6.0 mph 10.0 mph 88 % 0.00 in
09:32 72.1 °F 68.7 °F 29.80 in SSW 3.0 mph 9.0 mph 89 % 0.00 in
09:37 72.7 °F 68.9 °F 29.80 in SW 6.0 mph 9.0 mph 88 % 0.00 in
09:42 72.7 °F 68.9 °F 29.80 in West 3.0 mph 11.0 mph 88 % 0.00 in
09:47 72.9 °F 69.1 °F 29.80 in SW 8.0 mph 12.0 mph 88 % 0.00 in
09:52 73.2 °F 69.4 °F 29.80 in South 3.0 mph 12.0 mph 88 % 0.00 in
09:58 73.8 °F 69.6 °F 29.80 in SSW 4.0 mph 13.0 mph 87 % 0.00 in
10:02 73.9 °F 69.1 °F 29.81 in SW 1.0 mph 13.0 mph 85 % 0.00 in
10:05 73.9 °F 69.1 °F 29.80 in SSW 1.0 mph 13.0 mph 85 % 0.00 in
10:08 74.1 °F 69.3 °F 29.81 in SSW 4.0 mph 13.0 mph 85 % 0.00 in
10:13 74.3 °F 69.4 °F 29.81 in West 2.0 mph 11.0 mph 85 % 0.00 in
10:18 74.8 °F 70.3 °F 29.81 in SW 1.0 mph 7.0 mph 86 % 0.00 in
10:23 75.7 °F 70.2 °F 29.80 in SSW 4.0 mph 7.0 mph 83 % 0.00 in
10:28 76.3 °F 70.0 °F 29.81 in West 3.0 mph 12.0 mph 81 % 0.00 in
10:33 77.2 °F 70.5 °F 29.80 in SW 3.0 mph 12.0 mph 80 % 0.00 in
10:38 77.2 °F 69.8 °F 29.80 in SSE 5.0 mph 12.0 mph 78 % 0.00 in
10:43 77.4 °F 70.7 °F 29.80 in NW 5.0 mph 10.0 mph 80 % 0.00 in
10:48 77.7 °F 70.3 °F 29.80 in SSE 1.0 mph 10.0 mph 78 % 0.00 in
10:53 78.1 °F 70.0 °F 29.80 in SSW 6.0 mph 13.0 mph 76 % 0.00 in
10:58 78.4 °F 70.2 °F 29.80 in SW 3.0 mph 13.0 mph 76 % 0.00 in
11:03 79.0 °F 70.3 °F 29.81 in SW 4.0 mph 13.0 mph 75 % 0.00 in
11:08 79.2 °F 70.5 °F 29.81 in SW 2.0 mph 12.0 mph 75 % 0.00 in
11:13 79.3 °F 70.3 °F 29.81 in SW 2.0 mph 11.0 mph 74 % 0.00 in
11:18 79.5 °F 70.9 °F 29.80 in West 3.0 mph 13.0 mph 75 % 0.00 in
11:23 79.7 °F 70.7 °F 29.80 in SSW 6.0 mph 13.0 mph 74 % 0.00 in
11:28 79.9 °F 70.5 °F 29.79 in SW 9.0 mph 13.0 mph 73 % 0.00 in
11:33 79.5 °F 70.2 °F 29.79 in SSW 9.0 mph 13.0 mph 73 % 0.00 in
11:38 79.7 °F 70.3 °F 29.79 in North 2.0 mph 14.0 mph 73 % 0.00 in
11:43 80.2 °F 70.3 °F 29.79 in WNW 6.0 mph 14.0 mph 72 % 0.00 in
11:48 80.8 °F 70.5 °F 29.79 in SW 7.0 mph 14.0 mph 71 % 0.00 in
11:53 80.8 °F 70.5 °F 29.80 in WSW 3.0 mph 12.0 mph 71 % 0.00 in
11:58 81.1 °F 70.9 °F 29.80 in SW 3.0 mph 11.0 mph 71 % 0.00 in
12:03 81.7 °F 71.8 °F 29.80 in SSW 3.0 mph 11.0 mph 72 % 0.00 in
12:09 82.6 °F 71.8 °F 29.79 in SW 6.0 mph 11.0 mph 70 % 0.00 in
12:14 82.8 °F 71.6 °F 29.79 in SW 4.0 mph 11.0 mph 69 % 0.00 in
12:19 82.6 °F 71.8 °F 29.79 in SW 6.0 mph 11.0 mph 70 % 0.00 in
12:24 82.8 °F 71.6 °F 29.80 in SSW 3.0 mph 11.0 mph 69 % 0.00 in
12:29 82.8 °F 71.6 °F 29.80 in SSW 3.0 mph 12.0 mph 69 % 0.00 in
12:34 82.8 °F 71.6 °F 29.80 in NW 2.0 mph 12.0 mph 69 % 0.00 in
12:39 82.9 °F 70.9 °F 29.80 in SSW 5.0 mph 12.0 mph 67 % 0.00 in
12:44 82.8 °F 71.1 °F 29.79 in SW 6.0 mph 18.0 mph 68 % 0.00 in
12:49 82.9 °F 71.2 °F 29.79 in SW 3.0 mph 18.0 mph 68 % 0.00 in
12:54 83.1 °F 71.4 °F 29.79 in SSW 6.0 mph 18.0 mph 68 % 0.00 in
12:59 83.1 °F 71.1 °F 29.79 in SSW 2.0 mph 13.0 mph 67 % 0.00 in
13:00 83.3 °F 71.2 °F 29.78 in NW 2.0 mph 11.0 mph 67 % 0.00 in
13:05 83.8 °F 71.2 °F 29.78 in SW 5.0 mph 11.0 mph 66 % 0.00 in
13:10 84.0 °F 71.4 °F 29.78 in WSW 4.0 mph 11.0 mph 66 % 0.00 in
13:15 84.4 °F 71.8 °F 29.77 in SSW 5.0 mph 11.0 mph 66 % 0.00 in
13:20 84.2 °F 71.6 °F 29.77 in South 5.0 mph 13.0 mph 66 % 0.00 in
13:25 84.2 °F 71.2 °F 29.76 in WSW 5.0 mph 14.0 mph 65 % 0.00 in
13:30 84.9 °F 71.8 °F 29.76 in WSW 4.0 mph 14.0 mph 65 % 0.00 in
13:35 85.5 °F 71.4 °F 29.76 in NNW 3.0 mph 14.0 mph 63 % 0.00 in
13:36 85.5 °F 70.9 °F 29.75 in SSW 5.0 mph 14.0 mph 62 % 0.00 in
13:41 85.5 °F 70.0 °F 29.75 in South 9.0 mph 14.0 mph 60 % 0.00 in
13:46 85.5 °F 71.4 °F 29.75 in South 6.0 mph 16.0 mph 63 % 0.00 in
13:52 86.0 °F 71.4 °F 29.75 in SSW 6.0 mph 16.0 mph 62 % 0.00 in
13:57 86.2 °F 70.7 °F 29.75 in SW 3.0 mph 16.0 mph 60 % 0.00 in
14:02 85.8 °F 70.9 °F 29.75 in WSW 3.0 mph 11.0 mph 61 % 0.00 in
14:07 85.8 °F 70.9 °F 29.75 in SSW 7.0 mph 12.0 mph 61 % 0.00 in
14:12 85.6 °F 69.1 °F 29.75 in SW 3.0 mph 13.0 mph 58 % 0.00 in
14:17 85.5 °F 68.0 °F 29.74 in SW 7.0 mph 13.0 mph 56 % 0.00 in
14:22 85.6 °F 70.2 °F 29.74 in SSW 8.0 mph 13.0 mph 60 % 0.00 in
14:27 85.6 °F 69.6 °F 29.74 in WSW 4.0 mph 10.0 mph 59 % 0.00 in
14:32 86.2 °F 69.6 °F 29.74 in SW 3.0 mph 10.0 mph 58 % 0.00 in
14:37 86.5 °F 70.0 °F 29.74 in SSW 3.0 mph 10.0 mph 58 % 0.00 in
14:42 86.9 °F 69.8 °F 29.75 in West 7.0 mph 10.0 mph 57 % 0.00 in
14:47 87.1 °F 70.0 °F 29.75 in SW 4.0 mph 9.0 mph 57 % 0.00 in
14:52 87.3 °F 70.7 °F 29.75 in NW 4.0 mph 12.0 mph 58 % 0.00 in
14:57 87.1 °F 68.9 °F 29.75 in SW 9.0 mph 12.0 mph 55 % 0.00 in
15:02 86.7 °F 67.5 °F 29.75 in SSW 2.0 mph 12.0 mph 53 % 0.00 in
15:07 86.5 °F 66.2 °F 29.75 in South 1.0 mph 10.0 mph 51 % 0.00 in
15:12 86.5 °F 65.1 °F 29.75 in WSW 1.0 mph 10.0 mph 49 % 0.00 in
15:17 86.7 °F 65.8 °F 29.75 in NW 2.0 mph 10.0 mph 50 % 0.00 in
15:22 87.1 °F 65.7 °F 29.75 in SW 5.0 mph 8.0 mph 49 % 0.00 in
15:27 87.3 °F 63.3 °F 29.75 in SW 5.0 mph 8.0 mph 45 % 0.00 in
15:32 87.4 °F 63.5 °F 29.75 in WNW 3.0 mph 9.0 mph 45 % 0.00 in
15:37 87.4 °F 60.1 °F 29.75 in SW 2.0 mph 9.0 mph 40 % 0.00 in
15:42 87.6 °F 58.1 °F 29.76 in NNW 3.0 mph 9.0 mph 37 % 0.00 in
15:47 88.0 °F 57.7 °F 29.76 in SSW 2.0 mph 8.0 mph 36 % 0.00 in
15:52 88.0 °F 55.2 °F 29.75 in WNW 1.0 mph 8.0 mph 33 % 0.00 in
15:57 88.2 °F 53.8 °F 29.76 in North 8.0 mph 8.0 mph 31 % 0.00 in
16:02 88.2 °F 53.8 °F 29.76 in WNW 6.0 mph 9.0 mph 31 % 0.00 in
16:07 88.3 °F 54.7 °F 29.77 in SSW 2.0 mph 11.0 mph 32 % 0.00 in
16:12 88.2 °F 52.0 °F 29.77 in West 4.0 mph 11.0 mph 29 % 0.00 in
16:17 87.8 °F 51.6 °F 29.77 in SSW 4.0 mph 13.0 mph 29 % 0.00 in
16:22 87.6 °F 51.4 °F 29.78 in West 2.0 mph 13.0 mph 29 % 0.00 in
16:27 87.6 °F 50.5 °F 29.78 in West 4.0 mph 13.0 mph 28 % 0.00 in
16:32 87.4 °F 49.3 °F 29.78 in WNW 3.0 mph 10.0 mph 27 % 0.00 in
16:37 87.3 °F 49.3 °F 29.78 in NNW 3.0 mph 10.0 mph 27 % 0.00 in
16:42 87.3 °F 50.2 °F 29.79 in WSW 1.0 mph 10.0 mph 28 % 0.00 in
16:47 87.3 °F 50.2 °F 29.79 in NW 4.0 mph 9.0 mph 28 % 0.00 in
16:52 86.9 °F 49.8 °F 29.80 in North 2.0 mph 10.0 mph 28 % 0.00 in
16:57 86.5 °F 49.6 °F 29.80 in NNW 4.0 mph 10.0 mph 28 % 0.00 in
17:02 86.4 °F 50.4 °F 29.80 in NW 1.0 mph 11.0 mph 29 % 0.00 in
17:07 86.2 °F 50.2 °F 29.80 in West 6.0 mph 11.0 mph 29 % 0.00 in
17:12 85.8 °F 50.7 °F 29.81 in WNW 1.0 mph 11.0 mph 30 % 0.00 in
17:17 85.6 °F 49.8 °F 29.81 in North 1.0 mph 9.0 mph 29 % 0.00 in
17:22 85.3 °F 49.5 °F 29.81 in West 2.0 mph 9.0 mph 29 % 0.00 in
17:27 84.9 °F 49.1 °F 29.82 in WNW 2.0 mph 9.0 mph 29 % 0.00 in
17:32 84.6 °F 49.6 °F 29.82 in NW 1.0 mph 9.0 mph 30 % 0.00 in
17:37 84.4 °F 49.6 °F 29.83 in NW 1.0 mph 7.0 mph 30 % 0.00 in
17:42 83.8 °F 50.0 °F 29.83 in WNW 3.0 mph 6.0 mph 31 % 0.00 in
17:47 83.5 °F 50.5 °F 29.83 in NW 4.0 mph 9.0 mph 32 % 0.00 in
17:52 83.1 °F 50.2 °F 29.83 in North 4.0 mph 10.0 mph 32 % 0.00 in
17:57 82.8 °F 49.8 °F 29.84 in NNW 5.0 mph 10.0 mph 32 % 0.00 in
18:02 82.2 °F 49.5 °F 29.84 in NW 3.0 mph 10.0 mph 32 % 0.00 in
18:07 81.9 °F 49.1 °F 29.85 in NNW 4.0 mph 10.0 mph 32 % 0.00 in
18:13 81.7 °F 49.8 °F 29.85 in NNW 6.0 mph 11.0 mph 33 % 0.00 in
18:18 81.1 °F 49.3 °F 29.86 in WNW 4.0 mph 11.0 mph 33 % 0.00 in
18:23 81.0 °F 49.1 °F 29.86 in NW 4.0 mph 11.0 mph 33 % 0.00 in
18:28 80.8 °F 49.8 °F 29.86 in NW 6.0 mph 11.0 mph 34 % 0.00 in
18:33 80.2 °F 49.3 °F 29.86 in WNW 5.0 mph 11.0 mph 34 % 0.00 in
18:38 80.1 °F 49.1 °F 29.87 in NW 8.0 mph 11.0 mph 34 % 0.00 in
18:43 79.9 °F 49.8 °F 29.87 in NW 3.0 mph 11.0 mph 35 % 0.00 in
18:48 79.5 °F 49.5 °F 29.88 in NW 4.0 mph 12.0 mph 35 % 0.00 in
18:53 79.2 °F 49.1 °F 29.88 in NW 5.0 mph 12.0 mph 35 % 0.00 in
18:58 78.6 °F 49.5 °F 29.88 in NW 5.0 mph 12.0 mph 36 % 0.00 in
19:03 78.6 °F 49.5 °F 29.89 in NW 5.0 mph 11.0 mph 36 % 0.00 in
19:08 78.3 °F 49.8 °F 29.90 in WNW 4.0 mph 11.0 mph 37 % 0.00 in
19:13 77.9 °F 49.5 °F 29.90 in WNW 5.0 mph 11.0 mph 37 % 0.00 in
19:18 77.5 °F 50.0 °F 29.91 in NW 6.0 mph 11.0 mph 38 % 0.00 in
19:23 77.4 °F 49.8 °F 29.91 in NW 12.0 mph 12.0 mph 38 % 0.00 in
19:28 77.0 °F 49.5 °F 29.91 in NW 6.0 mph 12.0 mph 38 % 0.00 in
19:33 76.8 °F 49.3 °F 29.91 in NW 10.0 mph 13.0 mph 38 % 0.00 in
19:38 76.3 °F 49.5 °F 29.91 in NNW 7.0 mph 13.0 mph 39 % 0.00 in
19:43 75.9 °F 49.1 °F 29.92 in NNW 9.0 mph 14.0 mph 39 % 0.00 in
19:48 75.6 °F 49.5 °F 29.92 in North 6.0 mph 15.0 mph 40 % 0.00 in
19:53 74.8 °F 48.9 °F 29.93 in NW 13.0 mph 15.0 mph 40 % 0.00 in
19:58 73.9 °F 48.7 °F 29.94 in WNW 6.0 mph 18.0 mph 41 % 0.00 in
20:03 73.2 °F 48.0 °F 29.94 in North 12.0 mph 19.0 mph 41 % 0.00 in
20:08 72.5 °F 48.0 °F 29.95 in NW 5.0 mph 19.0 mph 42 % 0.00 in
20:13 72.0 °F 48.2 °F 29.96 in WNW 6.0 mph 19.0 mph 43 % 0.00 in
20:18 71.4 °F 48.4 °F 29.96 in NNW 6.0 mph 14.0 mph 44 % 0.00 in
20:23 70.9 °F 47.8 °F 29.97 in NW 5.0 mph 14.0 mph 44 % 0.00 in
20:28 70.5 °F 48.2 °F 29.97 in NNW 7.0 mph 14.0 mph 45 % 0.00 in
20:33 70.2 °F 47.8 °F 29.98 in NW 8.0 mph 17.0 mph 45 % 0.00 in
20:38 69.8 °F 48.0 °F 29.98 in NNW 7.0 mph 18.0 mph 46 % 0.00 in
20:43 69.4 °F 47.8 °F 29.99 in NNW 5.0 mph 18.0 mph 46 % 0.00 in
20:48 69.1 °F 48.0 °F 29.99 in NNW 5.0 mph 18.0 mph 47 % 0.00 in
20:53 68.5 °F 47.5 °F 29.99 in North 7.0 mph 13.0 mph 47 % 0.00 in
20:58 68.4 °F 46.8 °F 29.99 in NW 6.0 mph 13.0 mph 46 % 0.00 in
21:04 68.2 °F 46.6 °F 29.99 in North 5.0 mph 13.0 mph 46 % 0.00 in
21:08 67.8 °F 46.2 °F 30.00 in North 6.0 mph 16.0 mph 46 % 0.00 in
21:14 67.5 °F 46.6 °F 30.00 in NW 3.0 mph 16.0 mph 47 % 0.00 in
21:19 67.3 °F 46.4 °F 30.00 in WNW 5.0 mph 16.0 mph 47 % 0.00 in
21:24 67.1 °F 45.7 °F 30.00 in NW 8.0 mph 12.0 mph 46 % 0.00 in
21:29 66.7 °F 45.9 °F 30.01 in NW 4.0 mph 12.0 mph 47 % 0.00 in
21:34 66.6 °F 45.7 °F 30.01 in NW 5.0 mph 15.0 mph 47 % 0.00 in
21:39 66.4 °F 46.0 °F 30.01 in NW 2.0 mph 15.0 mph 48 % 0.00 in
21:44 66.0 °F 45.7 °F 30.02 in NW 7.0 mph 15.0 mph 48 % 0.00 in
21:49 65.8 °F 45.7 °F 30.02 in NW 6.0 mph 13.0 mph 48 % 0.00 in
21:54 65.7 °F 45.5 °F 30.03 in NW 5.0 mph 13.0 mph 48 % 0.00 in
21:59 65.3 °F 45.1 °F 30.03 in NW 9.0 mph 13.0 mph 48 % 0.00 in
22:04 64.9 °F 44.8 °F 30.04 in NE 6.0 mph 14.0 mph 48 % 0.00 in
22:09 64.8 °F 44.6 °F 30.04 in NNW 8.0 mph 14.0 mph 48 % 0.00 in
22:14 64.4 °F 44.2 °F 30.04 in WNW 6.0 mph 14.0 mph 48 % 0.00 in
22:19 64.2 °F 44.1 °F 30.04 in NNW 5.0 mph 14.0 mph 48 % 0.00 in
22:24 64.0 °F 43.9 °F 30.05 in NNW 3.0 mph 14.0 mph 48 % 0.00 in
22:29 63.7 °F 43.7 °F 30.05 in NNW 4.0 mph 14.0 mph 48 % 0.00 in
22:34 63.3 °F 43.9 °F 30.05 in North 8.0 mph 13.0 mph 49 % 0.00 in
22:39 63.1 °F 43.7 °F 30.06 in NNW 6.0 mph 13.0 mph 49 % 0.00 in
22:44 63.0 °F 43.5 °F 30.06 in NNW 7.0 mph 11.0 mph 49 % 0.00 in
22:49 62.8 °F 43.3 °F 30.06 in NNE 8.0 mph 13.0 mph 49 % 0.00 in
22:54 62.6 °F 43.2 °F 30.06 in WNW 3.0 mph 13.0 mph 49 % 0.00 in
22:59 62.4 °F 43.5 °F 30.06 in NW 4.0 mph 13.0 mph 50 % 0.00 in
23:04 62.1 °F 43.2 °F 30.07 in NNW 3.0 mph 11.0 mph 50 % 0.00 in
23:09 62.1 °F 43.2 °F 30.07 in NW 3.0 mph 9.0 mph 50 % 0.00 in
23:14 61.9 °F 43.0 °F 30.07 in NNW 6.0 mph 9.0 mph 50 % 0.00 in
23:19 61.7 °F 42.8 °F 30.07 in North 7.0 mph 10.0 mph 50 % 0.00 in
23:24 61.5 °F 42.6 °F 30.07 in North 6.0 mph 12.0 mph 50 % 0.00 in
23:29 61.5 °F 42.6 °F 30.07 in WNW 2.0 mph 13.0 mph 50 % 0.00 in
23:34 61.3 °F 42.6 °F 30.07 in NNW 1.0 mph 13.0 mph 50 % 0.00 in
23:40 61.2 °F 42.4 °F 30.07 in NNW 4.0 mph 13.0 mph 50 % 0.00 in
23:44 61.0 °F 42.8 °F 30.07 in NW 1.0 mph 11.0 mph 51 % 0.00 in
23:50 60.8 °F 42.6 °F 30.07 in NW 3.0 mph 11.0 mph 51 % 0.00 in
23:55 60.4 °F 42.3 °F 30.07 in NNW 5.0 mph 11.0 mph 51 % 0.00 in
Spring, Texas: Villages of Bridgestone
Compliments of Weather Underground - 2.75 mb

Script developed by  Jim McMurry - jmcmurry@mwt.net Adapted for the template by  Wim van der Kuil - Leuven-Template.eu

You find our weather info also at:

UK Metoffice

WeatherCloud

Weather Underground

Mid-South Weather Network

AWEKAS

Citizen Weather Observer Program (CWOP)

HAMweather, WeatherForYou, PWS Weather

Equipment we use:

Weather-station
Davis Vantage Vue

Weather-program
Meteohub

Weather-server
Debian 7.9 x86 (Guest)

Provider
DreamHost

Davis Vantage Vue

Meteohub

Debian 7.9 x86 (Guest)

DreamHost